Time,TemperatureF,DewpointF,PressureIn,WindDirection,WindDirectionDegrees,WindSpeedMPH,WindSpeedGustMPH,Humidity,HourlyPrecipIn,Conditions,Clouds,dailyrainin,SolarRadiationWatts/m^2,SoftwareType,DateUTC
2013-09-29 00:04:00,63.4,26.0,30.00,NNW,346,0.0,0.0,24,0.00,,,0.00,0,weatherlink.com 1.10,2013-09-29 06:04:00,
2013-09-29 00:19:00,62.8,27.0,30.00,NNW,346,0.0,0.0,26,0.00,,,0.00,0,weatherlink.com 1.10,2013-09-29 06:19:00,
2013-09-29 00:34:00,62.7,30.0,30.01,NNW,346,0.0,0.0,29,0.00,,,0.00,0,weatherlink.com 1.10,2013-09-29 06:34:00,
2013-09-29 00:49:00,62.6,33.0,30.00,NNW,346,0.0,0.0,33,0.00,,,0.00,0,weatherlink.com 1.10,2013-09-29 06:49:00,
2013-09-29 01:04:00,62.7,35.0,30.00,NNW,346,0.0,0.0,36,0.00,,,0.00,0,weatherlink.com 1.10,2013-09-29 07:04:00,
2013-09-29 01:19:00,62.9,37.0,30.00,NNW,346,0.0,0.0,39,0.00,,,0.00,0,weatherlink.com 1.10,2013-09-29 07:19:00,
2013-09-29 01:34:00,61.2,34.0,30.00,NNW,346,0.0,0.0,36,0.00,,,0.00,0,weatherlink.com 1.10,2013-09-29 07:34:00,
2013-09-29 01:50:00,59.5,32.0,30.00,NNW,346,0.0,0.0,35,0.00,,,0.00,0,weatherlink.com 1.10,2013-09-29 07:50:00,
2013-09-29 02:05:00,58.6,32.0,30.00,NNW,346,0.0,0.0,37,0.00,,,0.00,0,weatherlink.com 1.10,2013-09-29 08:05:00,
2013-09-29 02:20:00,58.4,33.0,30.00,NNW,346,0.0,0.0,38,0.00,,,0.00,0,weatherlink.com 1.10,2013-09-29 08:20:00,
2013-09-29 02:35:00,58.3,33.0,30.00,NNW,346,0.0,0.0,38,0.00,,,0.00,0,weatherlink.com 1.10,2013-09-29 08:35:00,
2013-09-29 02:50:00,58.1,33.0,30.00,NNW,346,0.0,0.0,39,0.00,,,0.00,0,weatherlink.com 1.10,2013-09-29 08:50:00,
2013-09-29 03:05:00,58.0,33.0,29.99,NNW,346,0.0,0.0,39,0.00,,,0.00,0,weatherlink.com 1.10,2013-09-29 09:05:00,
2013-09-29 03:20:00,58.1,34.0,29.99,NNW,346,0.0,0.0,40,0.00,,,0.00,0,weatherlink.com 1.10,2013-09-29 09:20:00,
2013-09-29 03:35:00,57.5,33.0,29.99,NNW,346,0.0,0.0,40,0.00,,,0.00,0,weatherlink.com 1.10,2013-09-29 09:35:00,
2013-09-29 03:50:00,57.0,33.0,29.99,NNW,346,0.0,0.0,40,0.00,,,0.00,0,weatherlink.com 1.10,2013-09-29 09:50:00,
2013-09-29 04:05:00,56.3,31.0,29.99,NNW,346,0.0,0.0,39,0.00,,,0.00,0,weatherlink.com 1.10,2013-09-29 10:05:00,
2013-09-29 04:20:00,55.6,31.0,29.99,NNW,346,0.0,1.0,39,0.00,,,0.00,0,weatherlink.com 1.10,2013-09-29 10:20:00,
2013-09-29 04:35:00,54.7,31.0,29.99,NNW,346,0.0,0.0,40,0.00,,,0.00,0,weatherlink.com 1.10,2013-09-29 10:35:00,
2013-09-29 04:50:00,54.4,31.0,29.99,NNW,346,0.0,1.0,41,0.00,,,0.00,0,weatherlink.com 1.10,2013-09-29 10:50:00,
2013-09-29 05:05:00,54.6,31.0,29.99,NNW,346,0.0,1.0,41,0.00,,,0.00,0,weatherlink.com 1.10,2013-09-29 11:05:00,
2013-09-29 05:20:00,54.8,32.0,29.99,NNW,346,3.0,3.0,42,0.00,,,0.00,0,weatherlink.com 1.10,2013-09-29 11:20:00,
2013-09-29 05:35:00,54.8,32.0,30.00,NNW,346,1.0,4.0,43,0.00,,,0.00,0,weatherlink.com 1.10,2013-09-29 11:35:00,
2013-09-29 05:50:00,54.5,33.0,30.00,NNW,346,0.0,4.0,44,0.00,,,0.00,0,weatherlink.com 1.10,2013-09-29 11:50:00,
2013-09-29 06:05:00,54.4,33.0,30.00,NNW,346,1.0,4.0,45,0.00,,,0.00,0,weatherlink.com 1.10,2013-09-29 12:05:00,
2013-09-29 06:20:00,53.8,34.0,30.00,NNW,346,0.0,0.0,47,0.00,,,0.00,0,weatherlink.com 1.10,2013-09-29 12:20:00,
2013-09-29 06:35:00,53.6,34.0,30.00,NNW,346,0.0,0.0,48,0.00,,,0.00,0,weatherlink.com 1.10,2013-09-29 12:35:00,
2013-09-29 06:50:00,53.7,35.0,30.01,NNW,346,0.0,0.0,49,0.00,,,0.00,0,weatherlink.com 1.10,2013-09-29 12:50:00,
2013-09-29 07:05:00,54.0,35.0,30.01,NNW,346,0.0,0.0,49,0.00,,,0.00,7,weatherlink.com 1.10,2013-09-29 13:05:00,
2013-09-29 07:20:00,54.2,36.0,30.02,NNW,346,0.0,0.0,51,0.00,,,0.00,14,weatherlink.com 1.10,2013-09-29 13:20:00,
2013-09-29 07:35:00,55.5,37.0,30.02,NNW,346,0.0,0.0,50,0.00,,,0.00,49,weatherlink.com 1.10,2013-09-29 13:35:00,
2013-09-29 07:50:00,57.2,37.0,30.03,NNW,346,0.0,0.0,48,0.00,,,0.00,102,weatherlink.com 1.10,2013-09-29 13:50:00,
2013-09-29 08:05:00,57.6,37.0,30.03,NNW,346,0.0,1.0,46,0.00,,,0.00,163,weatherlink.com 1.10,2013-09-29 14:05:00,
2013-09-29 08:20:00,59.0,38.0,30.03,NNW,346,0.0,1.0,45,0.00,,,0.00,232,weatherlink.com 1.10,2013-09-29 14:20:00,
2013-09-29 08:51:00,61.0,39.0,30.04,NNW,346,0.0,5.0,45,0.00,,,0.00,338,weatherlink.com 1.10,2013-09-29 14:51:00,
2013-09-29 09:06:00,62.7,40.0,30.04,NNW,346,0.0,5.0,43,0.00,,,0.00,388,weatherlink.com 1.10,2013-09-29 15:06:00,
2013-09-29 09:21:00,65.2,41.0,30.04,NNW,346,0.0,0.0,42,0.00,,,0.00,434,weatherlink.com 1.10,2013-09-29 15:21:00,
2013-09-29 09:36:00,67.5,42.0,30.04,NNW,346,0.0,0.0,39,0.00,,,0.00,485,weatherlink.com 1.10,2013-09-29 15:36:00,
2013-09-29 09:51:00,68.8,42.0,30.05,NNW,346,0.0,0.0,38,0.00,,,0.00,533,weatherlink.com 1.10,2013-09-29 15:51:00,
2013-09-29 10:06:00,69.0,43.0,30.05,NNW,346,0.0,0.0,39,0.00,,,0.00,573,weatherlink.com 1.10,2013-09-29 16:06:00,
2013-09-29 10:21:00,68.3,42.0,30.04,NNW,346,0.0,3.0,39,0.00,,,0.00,615,weatherlink.com 1.10,2013-09-29 16:21:00,
2013-09-29 10:36:00,69.9,43.0,30.03,NNW,346,0.0,2.0,38,0.00,,,0.00,652,weatherlink.com 1.10,2013-09-29 16:36:00,
2013-09-29 10:51:00,70.7,44.0,30.03,NNW,346,0.0,3.0,38,0.00,,,0.00,686,weatherlink.com 1.10,2013-09-29 16:51:00,
2013-09-29 11:06:00,71.7,44.0,30.03,NNW,346,0.0,2.0,37,0.00,,,0.00,719,weatherlink.com 1.10,2013-09-29 17:06:00,
2013-09-29 11:21:00,72.8,44.0,30.02,NNW,345,1.0,1.0,36,0.00,,,0.00,747,weatherlink.com 1.10,2013-09-29 17:21:00,
2013-09-29 11:36:00,72.8,43.0,30.02,NNW,344,0.0,3.0,34,0.00,,,0.00,765,weatherlink.com 1.10,2013-09-29 17:36:00,
2013-09-29 11:51:00,74.2,40.0,30.01,NNW,340,0.0,3.0,29,0.00,,,0.00,789,weatherlink.com 1.10,2013-09-29 17:51:00,
2013-09-29 12:06:00,74.4,40.0,30.00,NNW,330,2.0,7.0,29,0.00,,,0.00,803,weatherlink.com 1.10,2013-09-29 18:06:00,
2013-09-29 12:22:00,75.2,40.0,30.00,NW,325,3.0,6.0,28,0.00,,,0.00,814,weatherlink.com 1.10,2013-09-29 18:22:00,
2013-09-29 12:37:00,75.7,40.0,29.99,NW,313,0.0,5.0,28,0.00,,,0.00,823,weatherlink.com 1.10,2013-09-29 18:37:00,
2013-09-29 12:52:00,77.6,40.0,29.98,NW,313,0.0,5.0,26,0.00,,,0.00,828,weatherlink.com 1.10,2013-09-29 18:52:00,
2013-09-29 13:07:00,78.2,42.0,29.97,NW,313,1.0,4.0,27,0.00,,,0.00,830,weatherlink.com 1.10,2013-09-29 19:07:00,
2013-09-29 13:22:00,79.6,42.0,29.96,WNW,299,0.0,8.0,26,0.00,,,0.00,821,weatherlink.com 1.10,2013-09-29 19:22:00,
2013-09-29 13:37:00,79.0,40.0,29.95,WNW,288,0.0,8.0,25,0.00,,,0.00,810,weatherlink.com 1.10,2013-09-29 19:37:00,
2013-09-29 13:52:00,80.5,40.0,29.94,West,281,2.0,9.0,24,0.00,,,0.00,798,weatherlink.com 1.10,2013-09-29 19:52:00,
2013-09-29 14:07:00,80.0,40.0,29.93,WNW,295,0.0,6.0,24,0.00,,,0.00,782,weatherlink.com 1.10,2013-09-29 20:07:00,
2013-09-29 14:22:00,81.4,41.0,29.92,WNW,296,7.0,8.0,24,0.00,,,0.00,763,weatherlink.com 1.10,2013-09-29 20:22:00,
2013-09-29 14:37:00,81.6,39.0,29.91,West,281,0.0,6.0,22,0.00,,,0.00,738,weatherlink.com 1.10,2013-09-29 20:37:00,
2013-09-29 14:52:00,81.5,39.0,29.91,NW,304,0.0,9.0,22,0.00,,,0.00,712,weatherlink.com 1.10,2013-09-29 20:52:00,
2013-09-29 15:07:00,82.1,41.0,29.90,NNW,346,0.0,6.0,23,0.00,,,0.00,679,weatherlink.com 1.10,2013-09-29 21:07:00,
2013-09-29 15:22:00,82.5,40.0,29.89,North,355,6.0,10.0,22,0.00,,,0.00,645,weatherlink.com 1.10,2013-09-29 21:22:00,
2013-09-29 15:37:00,82.5,40.0,29.88,North,355,0.0,7.0,22,0.00,,,0.00,605,weatherlink.com 1.10,2013-09-29 21:37:00,
2013-09-29 15:52:00,83.0,39.0,29.88,North,355,4.0,6.0,21,0.00,,,0.00,563,weatherlink.com 1.10,2013-09-29 21:52:00,
2013-09-29 16:07:00,83.7,40.0,29.88,NNW,343,3.0,7.0,21,0.00,,,0.00,524,weatherlink.com 1.10,2013-09-29 22:07:00,
2013-09-29 16:22:00,83.7,40.0,29.88,NNW,341,0.0,5.0,21,0.00,,,0.00,478,weatherlink.com 1.10,2013-09-29 22:22:00,
2013-09-29 16:37:00,83.8,37.0,29.87,NNW,345,4.0,7.0,19,0.00,,,0.00,432,weatherlink.com 1.10,2013-09-29 22:37:00,
2013-09-29 16:52:00,82.7,39.0,29.87,NNW,334,0.0,5.0,21,0.00,,,0.00,380,weatherlink.com 1.10,2013-09-29 22:52:00,
2013-09-29 17:07:00,81.3,38.0,29.87,NW,322,0.0,5.0,21,0.00,,,0.00,325,weatherlink.com 1.10,2013-09-29 23:07:00,
2013-09-29 17:22:00,82.7,39.0,29.87,NW,322,0.0,3.0,21,0.00,,,0.00,274,weatherlink.com 1.10,2013-09-29 23:22:00,
2013-09-29 17:37:00,82.9,38.0,29.86,NW,322,0.0,1.0,20,0.00,,,0.00,218,weatherlink.com 1.10,2013-09-29 23:37:00,
2013-09-29 17:52:00,82.8,39.0,29.86,NW,322,0.0,4.0,21,0.00,,,0.00,149,weatherlink.com 1.10,2013-09-29 23:52:00,
2013-09-29 18:07:00,80.6,37.0,29.86,NW,322,0.0,6.0,21,0.00,,,0.00,19,weatherlink.com 1.10,2013-09-30 00:07:00,
2013-09-29 18:22:00,79.6,38.0,29.86,NW,322,0.0,0.0,22,0.00,,,0.00,16,weatherlink.com 1.10,2013-09-30 00:22:00,
2013-09-29 18:37:00,78.8,38.0,29.86,NW,322,0.0,0.0,23,0.00,,,0.00,11,weatherlink.com 1.10,2013-09-30 00:37:00,
2013-09-29 18:52:00,78.0,39.0,29.86,NW,322,0.0,0.0,25,0.00,,,0.00,0,weatherlink.com 1.10,2013-09-30 00:52:00,
2013-09-29 19:07:00,76.9,38.0,29.86,NW,322,0.0,0.0,25,0.00,,,0.00,0,weatherlink.com 1.10,2013-09-30 01:07:00,
2013-09-29 19:22:00,75.7,39.0,29.86,NW,322,0.0,0.0,27,0.00,,,0.00,0,weatherlink.com 1.10,2013-09-30 01:22:00,
2013-09-29 19:37:00,75.1,39.0,29.86,NW,322,0.0,0.0,27,0.00,,,0.00,0,weatherlink.com 1.10,2013-09-30 01:37:00,
2013-09-29 19:52:00,74.9,39.0,29.86,NW,322,0.0,0.0,27,0.00,,,0.00,0,weatherlink.com 1.10,2013-09-30 01:52:00,
2013-09-29 20:07:00,74.2,39.0,29.86,NW,322,0.0,0.0,28,0.00,,,0.00,0,weatherlink.com 1.10,2013-09-30 02:07:00,
2013-09-29 20:22:00,73.3,39.0,29.87,NW,322,0.0,0.0,29,0.00,,,0.00,0,weatherlink.com 1.10,2013-09-30 02:22:00,
2013-09-29 20:37:00,72.7,40.0,29.87,NW,322,0.0,0.0,31,0.00,,,0.00,0,weatherlink.com 1.10,2013-09-30 02:37:00,
2013-09-29 20:52:00,71.9,39.0,29.88,NW,322,0.0,0.0,30,0.00,,,0.00,0,weatherlink.com 1.10,2013-09-30 02:52:00,
2013-09-29 21:07:00,71.8,39.0,29.88,NW,322,0.0,0.0,31,0.00,,,0.00,0,weatherlink.com 1.10,2013-09-30 03:07:00,
2013-09-29 21:22:00,71.2,40.0,29.88,NW,322,0.0,0.0,32,0.00,,,0.00,0,weatherlink.com 1.10,2013-09-30 03:22:00,
2013-09-29 21:37:00,70.3,40.0,29.89,NW,322,0.0,0.0,33,0.00,,,0.00,0,weatherlink.com 1.10,2013-09-30 03:37:00,
2013-09-29 21:52:00,69.3,40.0,29.89,NW,322,0.0,0.0,34,0.00,,,0.00,0,weatherlink.com 1.10,2013-09-30 03:52:00,
2013-09-29 22:07:00,69.5,39.0,29.89,NW,322,0.0,0.0,33,0.00,,,0.00,0,weatherlink.com 1.10,2013-09-30 04:07:00,
2013-09-29 22:22:00,69.5,38.0,29.88,NW,322,0.0,0.0,32,0.00,,,0.00,0,weatherlink.com 1.10,2013-09-30 04:22:00,
2013-09-29 22:37:00,69.0,39.0,29.88,NW,322,0.0,0.0,33,0.00,,,0.00,0,weatherlink.com 1.10,2013-09-30 04:37:00,
2013-09-29 22:52:00,68.1,39.0,29.88,NW,322,0.0,0.0,34,0.00,,,0.00,0,weatherlink.com 1.10,2013-09-30 04:52:00,
2013-09-29 23:07:00,67.6,39.0,29.88,NW,322,0.0,0.0,35,0.00,,,0.00,0,weatherlink.com 1.10,2013-09-30 05:07:00,
2013-09-29 23:22:00,66.5,39.0,29.88,NW,322,0.0,2.0,37,0.00,,,0.00,0,weatherlink.com 1.10,2013-09-30 05:22:00,
2013-09-29 23:37:00,64.8,38.0,29.88,NW,322,0.0,0.0,38,0.00,,,0.00,0,weatherlink.com 1.10,2013-09-30 05:37:00,
2013-09-29 23:52:00,64.8,38.0,29.87,NW,322,0.0,0.0,38,0.00,,,0.00,0,weatherlink.com 1.10,2013-09-30 05:52:00,